Hourly Data Report for October 26, 2013

All times are specified in Local Standard Time (LST). Add 1 hour to adjust for Daylight Saving Time where and when it is observed.

IQALUIT CLIMATE
NUNAVUT

63°44'50.000" N
68°32'40.000" W
33.50 m
2402592
71321
XFB

Download Data

Hourly Data (October 2013)
Hourly Data Report for October 26, 2013
Temp Definition
°C
Dew Point Temp Definition
°C
Rel Hum Definition
%
Wind Dir Definition
10's deg

Wind Spd Definition
km/h
Visibility Definition
km
Stn Press Definition
kPa
Hmdx Definition


Wind Chill Definition


Weather Definition


TIME
00:00 -4.7 -8.1 77 28 7   100.12   -8 LegendNANA
01:00 -4.5 -7.9 77 30 9   100.13   -8 LegendNANA
02:00 -4.5 -7.3 81 30 9   100.13   -8 LegendNANA
03:00 -4.5 -6.7 85 30 11   100.12   -9 LegendNANA
04:00 -4.3 -6.6 84 31 7   100.11   -7 LegendNANA
05:00 -4.8 -7.0 85 36 6   100.11   -8 LegendNANA
06:00 -6.4 -7.9 89 5 4   100.10   -8 LegendNANA
07:00 -5.8 -7.3 89 35 6   100.11   -9 LegendNANA
08:00 -5.0 -6.7 88 36 4   100.10   -7 LegendNANA
09:00 -5.3 -6.5 91 32 4   100.09   -7 LegendNANA
10:00 -4.6 -6.4 87 31 9   100.09   -8 LegendNANA
11:00 -4.8 -6.8 86 35 4   100.07   -7 LegendNANA
12:00 -4.3 -7.0 81 31 2   100.05   -5 LegendNANA
13:00 -4.4 -6.5 85 24 6   100.06   -7 LegendNANA
14:00 -4.6 -6.4 87 17 4   100.07   -6 LegendNANA
15:00 -4.6 -5.8 91 18 6   100.07   -7 LegendNANA
16:00 -4.5 -5.4 93 14 7   100.08   -8 LegendNANA
17:00 -4.6 -5.4 94 11 6   100.08   -7 LegendNANA
18:00 -4.5 -5.5 93 11 6   100.08   -7 LegendNANA
19:00 -4.5 -5.4 93 12 9   100.08   -8 LegendNANA
20:00 -4.6 -5.7 92 10 9   100.09   -8 LegendNANA
21:00 -3.9 -5.3 90 9 6   100.09   -7 LegendNANA
22:00 -4.1 -5.2 92 2 4   100.10   -6 LegendNANA
23:00 -4.2 -5.1 93 36 6   100.09   -7 LegendNANA

Notes on Data Quality.

Legend

  • E = Estimated
  • M = Missing
  • NA = Not Available
  • ‡ = Partner data that is not subject to review by the National Climate Archives
Date modified: